Location: Ch�ze
(42.9000°N, 0.0333°W)
Time: 18:48:42
(UTC+00:00)

Cosmos 2112 Rocket - Pass Details

Date: 24 January 2021
Orbit: 757 x 786 km, 74.1° (Epoch: 07 March)

Event Time Altitude Azimuth Distance (km) Brightness Sun altitude
Rises 18:12:50 0° 343° (NNW) 3,246 7.3 -12.9°
Reaches altitude 10° 18:15:17 10° 347° (NNW) 2,311 6.5 -13.3°
Maximum altitude 18:20:26 58° 67° (ENE) 888 4.0 -14.3°
Drops below altitude 10° 18:25:32 10° 146° (SE) 2,282 6.2 -15.2°
Sets 18:27:55 0° 150° (SSE) 3,201 7.0 -15.6°
